WJA771 CYQR-CYYC

Flight info

Callsign WJA771
Flight time 1h 11m
Altitude 38000
Route ODGOV DCT ILADA BIRKO6
Aircraft B38M/M-SDE1FGHILORVWXY/HB1

Departure

Time 2026-05-03 21:21
Airport Regina International Airport (CYQR)

Arrival

Time 2026-05-03 22:33
Airport Calgary International Airport (CYYC)
Time Latitude Longitude Altitude Speed Heading
2026-05-03 21:04 50.43270 -104.65636 1907 ft 0 kts 48°
2026-05-03 21:08 50.43270 -104.65637 1907 ft 0 kts 48°
2026-05-03 21:09 50.43269 -104.65637 1907 ft 0 kts 48°
2026-05-03 21:14 50.43265 -104.65645 1907 ft 2 kts 50°
2026-05-03 21:14 50.43253 -104.65670 1892 ft 3 kts 59°
2026-05-03 21:14 50.43244 -104.65698 1894 ft 3 kts 72°
2026-05-03 21:14 50.43240 -104.65728 1893 ft 3 kts 89°
2026-05-03 21:15 50.43243 -104.65758 1903 ft 3 kts 111°
2026-05-03 21:15 50.43252 -104.65784 1900 ft 2 kts 133°
2026-05-03 21:15 50.43257 -104.65792 1903 ft 0 kts 138°
2026-05-03 21:16 50.43258 -104.65792 1899 ft 0 kts 138°
2026-05-03 21:17 50.43257 -104.65792 1899 ft 0 kts 138°
2026-05-03 21:17 50.43253 -104.65786 1901 ft 2 kts 138°
2026-05-03 21:17 50.43211 -104.65728 1900 ft 11 kts 139°
2026-05-03 21:17 50.43136 -104.65623 1899 ft 17 kts 137°
2026-05-03 21:18 50.43047 -104.65497 1900 ft 17 kts 138°
2026-05-03 21:18 50.42964 -104.65380 1898 ft 15 kts 138°
2026-05-03 21:18 50.42892 -104.65279 1892 ft 13 kts 138°
2026-05-03 21:18 50.42831 -104.65193 1900 ft 11 kts 138°
2026-05-03 21:19 50.42778 -104.65121 1898 ft 9 kts 138°
2026-05-03 21:19 50.42721 -104.65040 1897 ft 14 kts 137°
2026-05-03 21:19 50.42630 -104.64922 1899 ft 20 kts 152°
2026-05-03 21:19 50.42510 -104.64899 1902 ft 15 kts 193°
2026-05-03 21:20 50.42455 -104.65003 1901 ft 12 kts 276°
2026-05-03 21:20 50.42497 -104.65092 1897 ft 10 kts 316°
2026-05-03 21:20 50.42681 -104.65355 1903 ft 72 kts 317°
2026-05-03 21:20 50.43237 -104.66143 1902 ft 141 kts 318°
2026-05-03 21:21 50.44076 -104.67219 2450 ft 162 kts 317°
2026-05-03 21:21 50.44974 -104.68326 3318 ft 175 kts 319°
2026-05-03 21:21 50.45951 -104.69583 4127 ft 190 kts 316°
2026-05-03 21:21 50.46831 -104.71253 4748 ft 208 kts 295°
2026-05-03 21:22 50.47259 -104.73475 5561 ft 221 kts 286°
2026-05-03 21:22 50.47670 -104.75888 6318 ft 236 kts 287°
2026-05-03 21:22 50.48120 -104.78421 7179 ft 245 kts 287°
2026-05-03 21:22 50.48589 -104.81019 8204 ft 247 kts 287°
2026-05-03 21:23 50.49067 -104.83632 9221 ft 251 kts 287°
2026-05-03 21:23 50.49556 -104.86292 10142 ft 256 kts 287°
2026-05-03 21:23 50.50066 -104.89051 10784 ft 272 kts 287°
2026-05-03 21:23 50.50612 -104.91991 11355 ft 287 kts 287°
2026-05-03 21:24 50.51181 -104.95059 12003 ft 298 kts 287°
2026-05-03 21:24 50.51765 -104.98217 12820 ft 303 kts 287°
2026-05-03 21:24 50.52353 -105.01409 13705 ft 305 kts 286°
2026-05-03 21:24 50.52943 -105.04618 14478 ft 307 kts 286°
2026-05-03 21:25 50.53536 -105.07852 15257 ft 309 kts 287°
2026-05-03 21:25 50.54130 -105.11101 16035 ft 311 kts 287°
2026-05-03 21:25 50.54728 -105.14368 16778 ft 313 kts 287°
2026-05-03 21:25 50.55329 -105.17670 17508 ft 315 kts 287°
2026-05-03 21:26 50.55730 -105.19872 17978 ft 317 kts 287°
2026-05-03 21:26 50.56338 -105.23216 18583 ft 319 kts 287°
2026-05-03 21:26 50.56950 -105.26589 19175 ft 322 kts 287°
2026-05-03 21:26 50.57565 -105.29988 19771 ft 324 kts 287°
2026-05-03 21:27 50.58182 -105.33406 20367 ft 326 kts 287°
2026-05-03 21:27 50.58803 -105.36849 20962 ft 328 kts 287°
2026-05-03 21:27 50.59427 -105.40320 21526 ft 331 kts 287°
2026-05-03 21:27 50.60016 -105.43839 22071 ft 334 kts 285°
2026-05-03 21:28 50.60562 -105.47407 22620 ft 337 kts 286°
2026-05-03 21:28 50.61117 -105.51001 23157 ft 339 kts 286°
2026-05-03 21:28 50.61677 -105.54624 23616 ft 342 kts 286°
2026-05-03 21:28 50.62241 -105.58269 24062 ft 344 kts 286°
2026-05-03 21:29 50.62807 -105.61940 24500 ft 346 kts 286°
2026-05-03 21:29 50.63377 -105.65643 24937 ft 348 kts 286°
2026-05-03 21:29 50.63949 -105.69367 25342 ft 351 kts 286°
2026-05-03 21:29 50.64523 -105.73112 25758 ft 353 kts 286°
2026-05-03 21:30 50.65100 -105.76886 26169 ft 355 kts 286°
2026-05-03 21:30 50.65680 -105.80684 26572 ft 357 kts 286°
2026-05-03 21:30 50.66261 -105.84504 26967 ft 360 kts 286°
2026-05-03 21:30 50.66845 -105.88347 27354 ft 362 kts 286°
2026-05-03 21:31 50.67431 -105.92217 27733 ft 364 kts 286°
2026-05-03 21:31 50.68020 -105.96117 28112 ft 366 kts 286°
2026-05-03 21:31 50.68611 -106.00035 28474 ft 369 kts 287°
2026-05-03 21:31 50.69204 -106.03985 28835 ft 371 kts 286°
2026-05-03 21:32 50.69799 -106.07947 29201 ft 373 kts 287°
2026-05-03 21:32 50.70396 -106.11941 29552 ft 375 kts 287°
2026-05-03 21:32 50.70995 -106.15956 29872 ft 377 kts 287°
2026-05-03 21:32 50.71596 -106.19995 30169 ft 379 kts 287°
2026-05-03 21:33 50.72198 -106.24049 30489 ft 380 kts 287°
2026-05-03 21:33 50.72801 -106.28118 30782 ft 382 kts 287°
2026-05-03 21:33 50.73395 -106.32146 31089 ft 382 kts 287°
2026-05-03 21:33 50.74005 -106.36284 31509 ft 381 kts 287°
2026-05-03 21:34 50.74594 -106.40295 31924 ft 379 kts 287°
2026-05-03 21:34 50.75186 -106.44338 32349 ft 377 kts 288°
2026-05-03 21:34 50.75775 -106.48365 32755 ft 376 kts 288°
2026-05-03 21:34 50.76359 -106.52376 33159 ft 374 kts 288°
2026-05-03 21:35 50.76941 -106.56375 33560 ft 372 kts 288°
2026-05-03 21:35 50.77516 -106.60351 33924 ft 371 kts 288°
2026-05-03 21:35 50.78091 -106.64326 34185 ft 371 kts 288°
2026-05-03 21:35 50.78665 -106.68309 34431 ft 372 kts 287°
2026-05-03 21:36 50.79239 -106.72297 34684 ft 373 kts 287°
2026-05-03 21:36 50.79812 -106.76292 34938 ft 373 kts 287°
2026-05-03 21:36 50.80386 -106.80298 35174 ft 374 kts 287°
2026-05-03 21:36 50.80958 -106.84311 35414 ft 375 kts 286°
2026-05-03 21:37 50.81531 -106.88335 35647 ft 375 kts 286°
2026-05-03 21:37 50.82103 -106.92362 35878 ft 376 kts 286°
2026-05-03 21:37 50.82674 -106.96396 36109 ft 376 kts 285°
2026-05-03 21:37 50.83245 -107.00436 36313 ft 377 kts 285°
2026-05-03 21:38 50.83815 -107.04483 36518 ft 378 kts 285°
2026-05-03 21:38 50.84385 -107.08544 36713 ft 378 kts 285°
2026-05-03 21:38 50.84955 -107.12610 36918 ft 379 kts 285°
2026-05-03 21:38 50.85524 -107.16684 37101 ft 379 kts 284°
2026-05-03 21:39 50.86093 -107.20764 37284 ft 380 kts 284°
2026-05-03 21:39 50.86661 -107.24856 37461 ft 381 kts 284°
2026-05-03 21:39 50.87229 -107.28954 37634 ft 381 kts 284°
2026-05-03 21:39 50.87797 -107.33062 37733 ft 383 kts 284°
2026-05-03 21:40 50.88920 -107.41227 37733 ft 382 kts 284°
2026-05-03 21:40 50.90051 -107.49492 37726 ft 382 kts 284°
2026-05-03 21:41 50.91164 -107.57673 37729 ft 382 kts 284°
2026-05-03 21:41 50.92280 -107.65917 37730 ft 383 kts 284°
2026-05-03 21:42 50.93388 -107.74161 37729 ft 383 kts 284°
2026-05-03 21:42 50.94492 -107.82415 37735 ft 383 kts 284°
2026-05-03 21:43 50.95591 -107.90678 37741 ft 383 kts 284°
2026-05-03 21:43 50.96685 -107.98950 37742 ft 383 kts 284°
2026-05-03 21:44 50.97774 -108.07235 37741 ft 383 kts 284°
2026-05-03 21:44 50.98856 -108.15517 37746 ft 384 kts 284°
2026-05-03 21:45 50.99935 -108.23824 37743 ft 384 kts 284°
2026-05-03 21:45 51.01010 -108.32146 37746 ft 385 kts 284°
2026-05-03 21:46 51.02079 -108.40471 37745 ft 385 kts 284°
2026-05-03 21:46 51.03140 -108.48809 37752 ft 386 kts 284°
2026-05-03 21:47 51.04202 -108.57164 37748 ft 386 kts 284°
2026-05-03 21:47 51.05258 -108.65543 37759 ft 387 kts 284°
2026-05-03 21:48 51.06309 -108.73930 37759 ft 387 kts 284°
2026-05-03 21:48 51.07356 -108.82333 37761 ft 388 kts 284°
2026-05-03 21:49 51.08396 -108.90743 37764 ft 388 kts 284°
2026-05-03 21:49 51.09432 -108.99169 37766 ft 388 kts 284°
2026-05-03 21:50 51.10456 -109.07551 37769 ft 389 kts 284°
2026-05-03 21:50 51.11481 -109.15993 37772 ft 389 kts 284°
2026-05-03 21:51 51.12504 -109.24466 37773 ft 390 kts 284°
2026-05-03 21:51 51.13519 -109.32938 37780 ft 390 kts 284°
2026-05-03 21:52 51.14530 -109.41430 37780 ft 391 kts 284°
2026-05-03 21:52 51.15537 -109.49934 37786 ft 391 kts 284°
2026-05-03 21:53 51.16539 -109.58460 37791 ft 392 kts 284°
2026-05-03 21:53 51.17535 -109.66991 37784 ft 392 kts 284°
2026-05-03 21:54 51.18527 -109.75541 37795 ft 393 kts 284°
2026-05-03 21:54 51.19514 -109.84116 37800 ft 393 kts 284°
2026-05-03 21:55 51.20496 -109.92695 37804 ft 394 kts 284°
2026-05-03 21:55 51.21473 -110.01289 37806 ft 394 kts 284°
2026-05-03 21:56 51.22445 -110.09904 37808 ft 395 kts 284°
2026-05-03 21:56 51.23407 -110.18481 37664 ft 396 kts 284°
2026-05-03 21:57 51.23894 -110.22853 37379 ft 394 kts 284°
2026-05-03 21:57 51.24371 -110.27149 37122 ft 393 kts 284°
2026-05-03 21:57 51.24846 -110.31437 36857 ft 392 kts 284°
2026-05-03 21:57 51.25320 -110.35725 36605 ft 391 kts 284°
2026-05-03 21:58 51.25791 -110.39994 36349 ft 391 kts 284°
2026-05-03 21:58 51.26253 -110.44205 36106 ft 390 kts 284°
2026-05-03 21:58 51.26720 -110.48470 35858 ft 389 kts 285°
2026-05-03 21:58 51.27185 -110.52726 35620 ft 389 kts 285°
2026-05-03 21:59 51.27647 -110.56973 35380 ft 388 kts 285°
2026-05-03 21:59 51.28106 -110.61212 35144 ft 387 kts 285°
2026-05-03 21:59 51.28564 -110.65447 34900 ft 387 kts 285°
2026-05-03 21:59 51.29019 -110.69672 34587 ft 386 kts 285°
2026-05-03 22:00 51.29472 -110.73886 34189 ft 384 kts 285°
2026-05-03 22:00 51.29920 -110.78081 33768 ft 382 kts 285°
2026-05-03 22:00 51.30367 -110.82270 33302 ft 383 kts 285°
2026-05-03 22:00 51.30813 -110.86476 32826 ft 384 kts 285°
2026-05-03 22:01 51.31162 -110.90735 32356 ft 388 kts 282°
2026-05-03 22:01 51.31485 -110.95027 31894 ft 390 kts 282°
2026-05-03 22:01 51.31820 -110.99340 31472 ft 392 kts 282°
2026-05-03 22:01 51.32160 -111.03683 31157 ft 395 kts 282°
2026-05-03 22:02 51.32502 -111.08036 30839 ft 396 kts 282°
2026-05-03 22:02 51.32845 -111.12415 30529 ft 398 kts 282°
2026-05-03 22:02 51.33189 -111.16818 30222 ft 400 kts 282°
2026-05-03 22:02 51.33532 -111.21234 29899 ft 401 kts 282°
2026-05-03 22:03 51.33874 -111.25663 29551 ft 402 kts 282°
2026-05-03 22:03 51.34216 -111.30110 29198 ft 404 kts 282°
2026-05-03 22:03 51.34558 -111.34578 28849 ft 405 kts 281°
2026-05-03 22:03 51.34898 -111.39053 28514 ft 406 kts 281°
2026-05-03 22:04 51.35238 -111.43544 28171 ft 408 kts 281°
2026-05-03 22:04 51.35577 -111.48048 27822 ft 409 kts 281°
2026-05-03 22:04 51.35916 -111.52572 27483 ft 410 kts 281°
2026-05-03 22:04 51.36255 -111.57121 27156 ft 412 kts 281°
2026-05-03 22:05 51.36592 -111.61670 26822 ft 413 kts 281°
2026-05-03 22:05 51.36930 -111.66249 26593 ft 414 kts 281°
2026-05-03 22:05 51.37261 -111.70767 26336 ft 405 kts 281°
2026-05-03 22:05 51.37587 -111.75248 25642 ft 403 kts 281°
2026-05-03 22:06 51.37911 -111.79705 25230 ft 405 kts 281°
2026-05-03 22:06 51.38234 -111.84185 24831 ft 405 kts 281°
2026-05-03 22:06 51.38556 -111.88664 24446 ft 404 kts 281°
2026-05-03 22:06 51.38873 -111.93115 24132 ft 399 kts 281°
2026-05-03 22:07 51.39181 -111.97453 23901 ft 386 kts 281°
2026-05-03 22:07 51.39477 -112.01645 23661 ft 374 kts 281°
2026-05-03 22:07 51.39764 -112.05730 23412 ft 364 kts 281°
2026-05-03 22:07 51.40042 -112.09702 23136 ft 355 kts 281°
2026-05-03 22:08 51.40311 -112.13576 22847 ft 346 kts 281°
2026-05-03 22:08 51.40572 -112.17357 22560 ft 338 kts 281°
2026-05-03 22:08 51.40828 -112.21055 22290 ft 331 kts 281°
2026-05-03 22:08 51.41076 -112.24675 21995 ft 324 kts 281°
2026-05-03 22:09 51.41319 -112.28237 21695 ft 319 kts 281°
2026-05-03 22:09 51.41558 -112.31761 21404 ft 317 kts 281°
2026-05-03 22:09 51.41793 -112.35230 21181 ft 310 kts 281°
2026-05-03 22:10 51.42245 -112.41952 20739 ft 297 kts 281°
2026-05-03 22:10 51.42461 -112.45183 20522 ft 296 kts 281°
2026-05-03 22:10 51.42679 -112.48468 20304 ft 296 kts 281°
2026-05-03 22:10 51.42896 -112.51736 20085 ft 295 kts 281°
2026-05-03 22:11 51.43111 -112.55009 19864 ft 294 kts 281°
2026-05-03 22:11 51.43325 -112.58266 19647 ft 294 kts 281°
2026-05-03 22:11 51.43537 -112.61514 19434 ft 293 kts 281°
2026-05-03 22:11 51.43748 -112.64755 19219 ft 292 kts 281°
2026-05-03 22:12 51.43957 -112.67988 19012 ft 291 kts 281°
2026-05-03 22:12 51.44166 -112.71215 18802 ft 291 kts 281°
2026-05-03 22:12 51.44373 -112.74435 18590 ft 290 kts 281°
2026-05-03 22:12 51.44577 -112.77648 18388 ft 289 kts 281°
2026-05-03 22:13 51.44782 -112.80858 18180 ft 289 kts 281°
2026-05-03 22:13 51.44985 -112.84055 17949 ft 288 kts 281°
2026-05-03 22:13 51.45186 -112.87246 17711 ft 287 kts 281°
2026-05-03 22:13 51.45386 -112.90431 17475 ft 290 kts 281°
2026-05-03 22:14 51.45590 -112.93690 17262 ft 297 kts 280°
2026-05-03 22:14 51.45792 -112.96935 17079 ft 290 kts 280°
2026-05-03 22:14 51.45923 -112.99057 16922 ft 287 kts 280°
2026-05-03 22:14 51.46119 -113.02217 16704 ft 283 kts 280°
2026-05-03 22:15 51.46313 -113.05355 16471 ft 283 kts 280°
2026-05-03 22:15 51.46506 -113.08493 16245 ft 282 kts 280°
2026-05-03 22:15 51.46698 -113.11620 16023 ft 282 kts 280°
2026-05-03 22:15 51.46889 -113.14747 15800 ft 281 kts 280°
2026-05-03 22:16 51.47078 -113.17858 15576 ft 280 kts 279°
2026-05-03 22:16 51.47266 -113.20962 15355 ft 279 kts 279°
2026-05-03 22:16 51.47391 -113.24070 15126 ft 282 kts 270°
2026-05-03 22:16 51.46853 -113.27121 14904 ft 292 kts 248°
2026-05-03 22:17 51.45668 -113.29822 14682 ft 299 kts 238°
2026-05-03 22:17 51.44373 -113.32429 14449 ft 299 kts 238°
2026-05-03 22:17 51.43069 -113.35010 14218 ft 297 kts 238°
2026-05-03 22:17 51.41763 -113.37567 13985 ft 296 kts 237°
2026-05-03 22:18 51.40458 -113.40100 13749 ft 294 kts 237°
2026-05-03 22:18 51.39154 -113.42619 13505 ft 293 kts 236°
2026-05-03 22:18 51.37853 -113.45125 13245 ft 292 kts 236°
2026-05-03 22:18 51.36553 -113.47622 12988 ft 291 kts 236°
2026-05-03 22:19 51.35258 -113.50108 12733 ft 290 kts 236°
2026-05-03 22:19 51.33966 -113.52585 12486 ft 290 kts 235°
2026-05-03 22:19 51.32675 -113.55058 12238 ft 290 kts 235°
2026-05-03 22:19 51.31383 -113.57528 11981 ft 289 kts 235°
2026-05-03 22:20 51.30094 -113.59992 11741 ft 289 kts 235°
2026-05-03 22:20 51.28806 -113.62452 11496 ft 288 kts 234°
2026-05-03 22:20 51.27521 -113.64907 11248 ft 288 kts 234°
2026-05-03 22:20 51.26240 -113.67350 11018 ft 287 kts 234°
2026-05-03 22:21 51.24956 -113.69795 10774 ft 287 kts 234°
2026-05-03 22:21 51.23675 -113.72237 10519 ft 287 kts 234°
2026-05-03 22:21 51.22395 -113.74670 10311 ft 285 kts 234°
2026-05-03 22:21 51.21136 -113.77065 10142 ft 279 kts 234°
2026-05-03 22:22 51.19901 -113.79411 9968 ft 272 kts 233°
2026-05-03 22:22 51.18695 -113.81695 9818 ft 266 kts 234°
2026-05-03 22:22 51.17372 -113.83704 9630 ft 265 kts 214°
2026-05-03 22:22 51.15628 -113.84636 9438 ft 266 kts 188°
2026-05-03 22:23 51.13798 -113.84731 9326 ft 261 kts 184°
2026-05-03 22:23 51.12016 -113.84778 9168 ft 252 kts 184°
2026-05-03 22:23 51.10265 -113.84809 8883 ft 252 kts 184°
2026-05-03 22:23 51.08504 -113.84829 8460 ft 256 kts 183°
2026-05-03 22:24 51.06713 -113.84838 8064 ft 258 kts 182°
2026-05-03 22:24 51.04945 -113.84847 7940 ft 249 kts 183°
2026-05-03 22:24 51.03254 -113.84860 7870 ft 239 kts 182°
2026-05-03 22:24 51.01613 -113.84873 7785 ft 232 kts 182°
2026-05-03 22:25 51.00031 -113.84877 7677 ft 224 kts 182°
2026-05-03 22:25 50.98464 -113.84884 7764 ft 228 kts 182°
2026-05-03 22:25 50.96853 -113.84885 7581 ft 235 kts 182°
2026-05-03 22:25 50.95203 -113.84894 7227 ft 239 kts 181°
2026-05-03 22:26 50.93540 -113.84902 6919 ft 239 kts 182°
2026-05-03 22:26 50.91907 -113.85295 6579 ft 239 kts 205°
2026-05-03 22:26 50.90627 -113.86878 6260 ft 232 kts 239°
2026-05-03 22:26 50.90065 -113.89156 6130 ft 218 kts 261°
2026-05-03 22:27 50.89815 -113.91478 5960 ft 208 kts 269°
2026-05-03 22:27 50.90144 -113.93549 5919 ft 190 kts 307°
2026-05-03 22:27 50.91121 -113.94861 5969 ft 181 kts 330°
2026-05-03 22:27 50.92226 -113.95786 6045 ft 179 kts 333°
2026-05-03 22:28 50.93339 -113.96689 6061 ft 180 kts 333°
2026-05-03 22:28 50.94453 -113.97588 6012 ft 180 kts 333°
2026-05-03 22:28 50.95571 -113.98488 5967 ft 180 kts 335°
2026-05-03 22:28 50.96763 -113.99028 5972 ft 179 kts 354°
2026-05-03 22:29 50.98011 -113.99089 5991 ft 180 kts
2026-05-03 22:29 50.99255 -113.99058 5798 ft 178 kts 359°
2026-05-03 22:29 51.00490 -113.99049 5579 ft 177 kts 358°
2026-05-03 22:29 51.01712 -113.99049 5354 ft 170 kts 359°
2026-05-03 22:30 51.02844 -113.99045 5173 ft 157 kts 359°
2026-05-03 22:30 51.03926 -113.99048 4947 ft 154 kts 359°
2026-05-03 22:30 51.04994 -113.99046 4755 ft 153 kts 360°
2026-05-03 22:30 51.06050 -113.99041 4534 ft 152 kts 359°
2026-05-03 22:31 51.07107 -113.99042 4336 ft 151 kts
2026-05-03 22:31 51.08158 -113.99037 4154 ft 151 kts 360°
2026-05-03 22:31 51.09205 -113.99035 3977 ft 152 kts
2026-05-03 22:31 51.10266 -113.99036 3780 ft 150 kts
2026-05-03 22:32 51.11289 -113.99050 3617 ft 149 kts
2026-05-03 22:32 51.12290 -113.99044 3564 ft 134 kts
2026-05-03 22:32 51.12490 -113.99043 3561 ft 126 kts
2026-05-03 22:32 51.13161 -113.99038 3565 ft 74 kts
2026-05-03 22:33 51.13458 -113.99089 3566 ft 26 kts 328°
2026-05-03 22:33 51.13590 -113.99217 3575 ft 18 kts 306°
2026-05-03 22:33 51.13562 -113.99309 3577 ft 8 kts 184°
2026-05-03 22:33 51.13505 -113.99307 3575 ft 9 kts 178°
2026-05-03 22:34 51.13401 -113.99301 3570 ft 22 kts 178°
2026-05-03 22:34 51.13238 -113.99300 3570 ft 26 kts 180°
2026-05-03 22:34 51.13054 -113.99301 3568 ft 27 kts 180°
2026-05-03 22:34 51.12876 -113.99301 3563 ft 25 kts 180°
2026-05-03 22:35 51.12707 -113.99299 3564 ft 22 kts 180°
2026-05-03 22:35 51.12618 -113.99415 3568 ft 18 kts 264°
2026-05-03 22:35 51.12617 -113.99590 3568 ft 16 kts 271°
2026-05-03 22:35 51.12615 -113.99799 3568 ft 22 kts 270°
2026-05-03 22:36 51.12616 -114.00024 3568 ft 18 kts 270°
2026-05-03 22:36 51.12617 -114.00248 3568 ft 19 kts 270°
2026-05-03 22:36 51.12616 -114.00419 3568 ft 13 kts 269°
2026-05-03 22:36 51.12620 -114.00572 3568 ft 15 kts 285°
2026-05-03 22:37 51.12688 -114.00639 3565 ft 8 kts
2026-05-03 22:37 51.12742 -114.00633 3564 ft 8 kts
2026-05-03 22:37 51.12791 -114.00631 3559 ft 7 kts
2026-05-03 22:37 51.12841 -114.00581 3565 ft 11 kts 58°
2026-05-03 22:38 51.12857 -114.00500 3568 ft 0 kts 75°